Location: Plymouth Village
(34.0436°N, 117.1717°W)
Time: 12:55:19
(UTC+00:00)

Daily predictions for brighter satellites

Satellite Brightness Start Highest point End
(mag) Time Altitude Azimuth Time Altitude Azimuth Time Altitude Azimuth
Cosmos 1867 3.5 12:03:58 26° SW 12:07:01 71° WNW 12:12:30 10° NNE
Cosmos 1666 3.5 12:10:53 10° NNW 12:12:49 26° NW 12:12:49 26° NW
Cosmos 2322 Rocket 2.2 12:09:07 10° NNW 12:14:40 59° WSW 12:20:10 10° S
DELTA 2 R/B (1) 4.2 12:12:36 19° WNW 12:16:19 48° N 12:21:41 10° ENE
ARGOS 3.7 12:16:18 10° NNE 12:21:35 59° E 12:26:51 10° S
NOSS 3-2 (C) 3.2 12:18:06 10° SSW 12:23:01 71° ESE 12:28:36 10° NE
Cosmos 2219 Rocket 2.7 12:18:45 10° NNW 12:24:20 63° ENE 12:29:51 10° SSE
Cosmos 1862 4.2 12:22:27 10° NW 12:25:32 24° W 12:26:08 23° WSW
Cosmos 1758 Rocket 4.3 12:21:55 10° NNW 12:25:45 30° W 12:29:31 10° SSW
Chandra Rocket (1) 3.1 12:23:50 22° WSW 12:26:01 47° S 12:35:08 10° ESE
Cosmos 468 Rocket 3.9 12:21:35 10° NNW 12:26:49 79° WSW 12:32:03 10° SSE
Cosmos 2333 Rocket 2.2 12:22:15 10° NNW 12:27:52 61° WSW 12:33:24 10° S
JB-3 4.5 12:26:15 10° SSE 12:30:03 72° ENE 12:33:55 10° N
Cosmos 1602 3.4 12:27:41 10° NNW 12:31:09 63° W 12:34:37 10° S
Cosmos 2058 Rocket 3.6 12:27:26 10° S 12:31:46 61° E 12:36:09 10° NNE
Cosmos 540 Rocket 3.5 12:30:16 10° NNW 12:35:14 53° WSW 12:40:12 10° S
SL-16 R/B 3.3 12:31:23 10° NW 12:35:34 21° W 12:39:43 10° SSW
Cosmos 1818 3.7 12:32:12 10° NW 12:37:28 51° WSW 12:42:40 10° S
Cosmos 1484 Rocket 2.7 12:35:51 10° N 12:39:31 59° WNW 12:43:12 10° SSW
Thor Agena Rocket 4.0 12:35:07 10° N 12:39:54 40° WNW 12:44:44 10° SW
H-2A R/B 3.9 12:38:33 10° NNE 12:41:16 34° E 12:43:59 10° SSE
Cosmos 1726 Rocket 3.9 12:39:09 10° SSW 12:43:14 43° W 12:47:22 10° N
Cosmos 1763 Rocket 4.2 12:40:36 10° NW 12:45:03 30° W 12:49:32 10° SSW
Cosmos 1850 Rocket 4.0 12:42:29 10° SSW 12:47:42 75° WNW 12:53:00 10° NNE
CZ-2C R/B 4.2 12:46:31 10° NW 12:48:47 13° WNW 12:50:54 10° W
Cosmos 1515 3.7 12:47:53 10° S 12:51:13 68° E 12:54:34 10° NNE
Cosmos 1939 Rocket 3.3 12:47:52 10° N 12:51:34 39° WNW 12:55:16 10° SW
Cosmos 1378 2.9 12:52:09 10° S 12:55:13 71° E 12:58:18 10° N
Cosmos 2151 2.9 12:51:44 10° NNW 12:55:47 57° W 12:59:50 10° S
NOSS 3-2 (A) 4.4 12:55:02 10° W 12:59:11 24° NW 13:03:49 10° N
SME Rocket 3.6 12:56:56 10° N 13:00:21 34° WNW 13:04:04 10° SW
Cosmos 1238 Rocket 3.9 12:56:29 10° S 13:01:49 78° E 13:07:32 10° N
COSMO-SKYMED 1 3.1 12:57:55 10° SSE 13:02:13 67° ENE 13:06:32 10° N
Atlas Centaur 2 2.9 12:59:22 10° WSW 13:05:13 59° S 13:12:29 10° E
ATLAS 5 CENTAUR R/B 4.3 13:10:39 10° W 13:30:37 30° SW 13:37:01 10° SSE
